Hourly Data Report for April 18, 2017

All times are specified in Local Standard Time (LST). Add 1 hour to adjust for Daylight Saving Time where and when it is observed.

TORONTO CITY
ONTARIO

43°40'00.000" N
79°24'00.000" W
112.50 m
6158355
71508
XTO

Download Data

Hourly Data (April 2017)
Hourly Data Report for April 18, 2017
TIME Temp Definition
°C
Dew Point Definition
°C
Rel Hum Definition
%
Wind Dir Definition
10's deg

Wind Spd Definition
km/h
Visibility Definition
km
Stn Press Definition
kPa
Hmdx Definition


Wind Chill Definition


Weather Definition


00:00 3.0 -2.1 69 LegendMM LegendMM   101.32     LegendNANA
01:00 2.6 -1.8 73 LegendMM LegendMM   101.39     LegendNANA
02:00 2.7 -2.1 71 LegendMM LegendMM   101.39     LegendNANA
03:00 2.3 -2.2 72 LegendMM LegendMM   101.44     LegendNANA
04:00 2.1 -2.6 71 LegendMM LegendMM   101.48     LegendNANA
05:00 2.0 -2.7 71 LegendMM LegendMM   101.53     LegendNANA
06:00 2.0 -2.6 71 LegendMM LegendMM   101.59     LegendNANA
07:00 2.9 -2.2 69 LegendMM LegendMM   101.64     LegendNANA
08:00 3.8 -2.5 64 LegendMM LegendMM   101.71     LegendNANA
09:00 4.8 -1.6 63 LegendMM LegendMM   101.72     LegendNANA
10:00 4.6 -2.2 61 LegendMM LegendMM   101.75     LegendNANA
11:00 5.7 -0.4 65 LegendMM LegendMM   101.72     LegendNANA
12:00 5.1 -0.9 65 LegendMM LegendMM   101.68     LegendNANA
13:00 6.2 -1.5 58 LegendMM LegendMM   101.67     LegendNANA
14:00 7.1 -3.4 47 LegendMM LegendMM   101.55     LegendNANA
15:00 7.9 -3.6 44 LegendMM LegendMM   101.49     LegendNANA
16:00 7.0 -4.3 44 LegendMM LegendMM   101.45     LegendNANA
17:00 6.2 -3.7 49 LegendMM LegendMM   101.37     LegendNANA
18:00 5.5 -4.7 48 LegendMM LegendMM   101.29     LegendNANA
19:00 5.2 -4.6 49 LegendMM LegendMM   101.26     LegendNANA
20:00 5.1 -3.6 53 LegendMM LegendMM   101.24     LegendNANA
21:00 5.3 -3.6 53 LegendMM LegendMM   101.16     LegendNANA
22:00 5.4 -2.2 58 LegendMM LegendMM   101.11     LegendNANA
23:00 5.6 -1.5 60 LegendMM LegendMM   101.09     LegendNANA

Notes on Data Quality.

Legend

  • E = Estimated
  • M = Missing
  • NA = Not Available
Date modified: